Weather in Aksay

Russia / Rostov Oblast     47°16′11″N   39°51′45″E
temp.,
°C
wind,
m/s
gust,
m/s
humid.,
%
clouds,
%
prec.,
mm/h
press.,
hPa
HPBL,
m
23 october, sat
sat2300:00+12sw3118393 0.0 1018346
03:00+12sw31090100 0.0 1017282
06:00+11ssw389466 0.0 1017233
09:00+13sw498194 0.0 1018358
12:00+17wsw5755100 0.0 1018919
15:00+18wsw5859100 0.0 10171013
18:00+14wsw41070100 0.0 1017397
21:00+14wnw3675100 0.0 1018273
24 october, sun
sun2400:00+13nnw3678100 0.3 1019326
03:00+13wnw2473100 0.3 1019276
06:00+11n2471100 0.0 1020211
09:00+11nne3451100 0.0 1021332
12:00+14nne3338100 0.0 10201007
15:00+13n4337100 0.0 10191569
18:00+10n3354100 0.4 10211069
21:00+8n2466100 1.0 1022833
25 october, mon
mon2500:00+9w246198 0.1 1022538
03:00+7nnw4954100 0.1 1023502
06:00+5nnw48685 0.0 1026431
09:00+6n57665 0.0 1028611
12:00+8n454730 0.0 10281361
15:00+9n45351 0.0 10291561
18:00+8n35371 0.0 10311100
21:00+6nne36365 0.0 1032427
26 october, tue
tue2600:00+5ne25385 0.0 1032247
03:00+4ne24405 0.0 1033217
06:00+3ene23430 0.0 1034202
09:00+4ene23390 0.0 1034353
12:00+8e23290 0.0 1033863
15:00+9e23230 0.0 1032996
18:00+8e24260 0.0 1032419
21:00+6e25310 0.0 1032170
27 october, wed
wed2700:00+5e25370 0.0 1031169
03:00+4e36450 0.0 1030193
06:00+3e37490 0.0 1030199
09:00+5e48450 0.0 1029313
12:00+10ese46280 0.0 1027760
15:00+13ese45230 0.0 1025947
18:00+10ese38310 0.0 1024342
21:00+8e253748 0.0 1023162